Погода в Омске

Погода в Омске : погода сейчас, прогноз погоды и архив. Всё, что Вы хотите узнать о погоде в Омске!

Хотите узнать прогноз погоды в Омске? Тогда Вам сюда: Погода в Омске

Поиск расширенной информации на нашем сайте:

Другие новости

Новости СМИ2

Главная страница сайта

Новости сайта

03.07.2017

Напоминаем, что на нашем специализированном сайте Метеоцентр.Азия вы можете получить высокодетализированные автоматические прогнозы погоды по пунктам России, СНГ и мира в авиационном формате (включающие направление и скорость ветра, видимость, явления погоды, количество и форму облачности, нижнюю и верхнюю границу облачности).

Рекомендуем: Оптовка: печное литье балезино.

Погода в Омске - сегодня

Время (UTC), дата Ветер
(°,м/с) 
Видим.   Явления Облачность Т
(°С)
Тd
(°С)
f(%) Тe
(°С)
Pmin
(гПа)
dP
(гПа)
Po
(мм)
O2
(г/м3)
Тmin Tmax R s Состояние
почвы
09 15.08.18 150 (ЮВ) 20000 м    8/0 верхняя 
[Ci fib]
+27.8 +10 33 +29  1010.2  -1.4  747  272           
12 15.08.18 180 (Ю) 20000 м    8/3 600 м верхняя 
[Cu med, cong|Ci sp]
+27.6 +10.1 33 +29  1009.1  -1.1  746  271           
15 15.08.18 130 (ЮВ) 20000 м    10/3 600 м средняя, верхняя 
[Sc diur, vesp|Ac trans|Ci sp]
+24.2 +9.3 39 +25  1008.7  -0.6  746  275    +28.8       
18 15.08.18 130 (ЮВ) 10 км    8/0 средняя 
[Ac trans]
+22.2 +9.1 43 +22  1008  -0.8  745  276           
21 15.08.18 120 (ЮВ) 10 км    8/3 600 м средняя 
[Sc|Ac trans]
+19 +9.4 54 +22  1006.9  -1.2  745  279           
00 16.08.18 тихо ()   20000 м    4/0 средняя 
[Ac trans]
+13.8 +10.7 82 +16  1007.2  745  284           
03 16.08.18 170 (Ю) 20000 м    8/3 600 м средняя, верхняя 
[Sc|Ac trans|Ci fib]
+18.6 +13.4 72 +26  1007.8  0.9  745  278  +13.2         
06 16.08.18 300 (СЗ) 20000 м    3/0 средняя 
[Ac trans]
+24.5 +14.2 53 +32  1008.1  0.6  746  273           
09 16.08.18 190 (Ю) 20000 м    9/4 600 м кучево-дожд., средняя, верхняя 
[Cb cap|Ac trans|Ci sp]
+26.3 +11.4 39 +29  1008.8  0.7  746  272           
12 16.08.18 320 (СЗ) 20000 м    10/0 средняя, верхняя 
[Ac As|Ci sp]
+24.6 +13.4 50 +31  1008.9  -0.1  746  273           
15 16.08.18 300 (СЗ) 20000 м    6/0 средняя 
[Ac lent]
+21.4 +14.1 63 +29  1009.5  0.5  747  276    +26.8       
18 16.08.18 300 (СЗ) 10 км    ясно 
+17.3 +14.2 82 +26  1010  0.3  747  280           
21 16.08.18 300 (СЗ) 10 км    ясно 
+15.9 +13 83 +23  1009.9  0.1  747  282           
00 17.08.18 310 (СЗ) 6000 м  дымка  6/0 верхняя 
[Ci fib]
+13.6 +12.6 94 +20  1010.3  0.2  747  284           
03 17.08.18 300 (СЗ) 5000 м  дымка{морось, туман}  10/10 330 м 
[St]
+16.3 +15.7 96 +28  1011.3  1.2  748  281  +13.5    0.0     
06 17.08.18 190 (Ю) 20000 м  {морось, туман}  10/10 600 м 
[Sc]
+19.1 +14.4 74 +28  1010.9  -0.3  748  279           
09 17.08.18 250 (З) 20000 м    9/5 600 м средняя, верхняя 
[Cu med, cong|Ac lent|Ci fib]
+22.7 +12.9 54 +28  1010.2  -0.6  747  275           
12 17.08.18 240 (ЮЗ) 20000 м    8/3 600 м верхняя 
[Cu hum|Ci fib]
+23.4 +11.5 47 +27  1009.5  -0.6  747  275           
15 17.08.18 тихо ()   20000 м    6/0 средняя 
[Ac trans]
+18.8 +13.4 71 +25  1009.1  -0.7  746  279    +23.6       
18 17.08.18 200 (Ю) 10 км    8/0 средняя 
[Ac trans]
+20.3 +13.3 64 +26  1007.7  -1.2  745  277           
21 17.08.18 тихо ()   10 км    ясно 
+16.8 +13.8 82 +24  1007.5  -0.4  745  280           
00 18.08.18 210 (ЮЗ) 20000 м    ясно 
+16.5 +14.2 86 +24  1008.4  0.9  746  280           
03 18.08.18 220 (ЮЗ) 20000 м    4/0 средняя 
[Ac trans]
+17.3 +12.6 74 +23  1009.5  1.2  746  280  +15.9         
06 18.08.18 260 (З) 20000 м    8/3 600 м средняя, верхняя 
[Cu hum|Ac trans|Cc]
+19.9 +11.7 59 +25  1009.9  0.5  747  278           
09 18.08.18 260 (З) 20000 м    9/3 600 м верхняя 
[Cu hum|Ci sp]
+21.6 +9.9 47 +23  1009.6  -0.3  747  277           
Время (UTC), дата Ветер
(°,м/с) 
Видим.   Явления Облачность Т
(°С)
Тd
(°С)
f(%) Тe
(°С)
Pmin
(гПа)
dP
(гПа)
Po
(мм)
O2
(г/м3)
Тmin Tmax R s Состояние
почвы

Для получения пояснительной информации подведите курсор к названию столбца.

ПОГОДА в Омске - архив

Всё, что Вы хотите узнать о погоде в Омске - удобно и подробно!

Выберите нужную дату (начиная с 1 января 2015* года) и нажмите кнопку "Найти".
Будут отображены архивные сводки погоды по пункту Омск, начиная с указанной даты.


Отображать данные в формате CSV (для использования в таблицах Excel)


Внимание! Наш архив погоды предназначен исключительно для личного некоммерческого использования в познавательных целях. Если Вам необходимы официальные справки о состоянии погоды (для производственных, юридических, коммерческих и т.п. целей), обращайтесь в органы Росгидромета.

*Примечание: данная дата относится к архиву по метеостанциям СССР (Россия, СНГ, Балтия).
Архив по метеостанциям Зарубежной Европы и Азии (кроме Китая) хранится 10 дней, по другим регионам земного шара (Китай, Африка, Америка, Австралия, Океания) - 1 день.

Омск - район местоположения метеостанции


Название, широта, долгота, высота метеостанции:
Омск (город) 55°ш. 73.4°д. 122 м над ур. моря [Российская Федерация]

Дополнительная информация

В oтличие oт бoльшинства пoгoдных сайтoв мы публикуем пoдрoбную метеoинфoрмацию в детальнoм прoфессиoнальнoм фoрмате.

Характеристики температуры и влажнoсти вoздуха измеряются на высoте 2 м в тени вдали oт зданий и деревьев.
Скoрoсть ветра измеряется на высoте 10 м (на урoвне рoста челoвека скoрoсть ветра ниже в 1.5-2 раза). Если метеoстанция нахoдится в гoрoде или в лесу, тo скoрoсть ветра занижена на 2-4 м/с пo сравнению с oткрытым местoм. Скoрoсть ветра над акватoриями крупных рек и oзёр, а также на вершинах хoлмoв на 2-5 м/с выше, чем в oбычных услoвиях.
Атмoсфернoе давление в разных тoчках местнoсти мoжет значительнo oтличаться oт давления на метеoстанции, в зависимoсти oт услoвий рельефа (при пoдъёме на 10 м давление пoнижается примернo на 1 мм рт.ст.).